STARLINK-35824, 66370

Orbit data source: Space-Track

STARLINK-35824, 66370 is a payload satellite owned by SpaceX/Seattle (US) in LEO that was launched on Thu, 06 Nov 2025 UTC via an FALCON 9 launch vehicle from the Air Force Western Test Range (AFWTR). Payload-class satellites include a variety of spacecraft equipped with specific instruments for various scientific and technological missions. These include communications satellites like Starlink; space stations such as the ISS; scientific satellites like the Hubble; Earth observation satellites from companies like Planet Labs, Umbra, and HawkEye 360; GPS; miniature CubeSats for education and research; and military/defense satellites.

Loading next visibility...
Identifier
66370, 2025-254Y
Orbit
LEO
Country
Flag of USUS
Related business
Manufacturer
SpaceX/Seattle
Mission
Operational Commercial Communications
Bus & Motor
STARLINK V2MO, Unknown motor
Mass
575 kg wet, ~530 kg dry
Launch date (UTC)
2025-11-06 (7 months ago)
Launch vehicle
FALCON 9
Launch site
Air Force Western Test Range (AFWTR)
Object type
Payload
Rocket body
Debris
Shape & HBR
Box + 2 Pan, 17.7 m
Radar Cross Section
36.964 m², Large (>1 m²)

Expand to show TLE details & history
Last TLE update: 17 hours ago

TLE from 17 hours ago
0 STARLINK-35824
1 66370U 25254Y   26171.21223219  .00014174  00000-0  48957-3 0  9992
2 66370  53.1584 113.9791 0001783  86.7460 273.3745 15.30212171 34709
Epoch: 2026-06-20T05:05Z
TLE epoch observation values (Epoch: 2026-06-20T05:05:36.861Z)
Latitude
0.00001°
Longitude
129.14543°
Altitude
476.007 km
Speed
7.629 km/s
True Right ascension
07h 35m 54s
True Declination
0° 00' 00"
Sunlit
Object was in daylight at epoch
Visualization orbit readout
Latitude
Unknown
Longitude
Unknown
Altitude
Unknown
Speed
Unknown
Apparent Right ascension
Unknown
Apparent Declination
Unknown
Sunlit
N/A
Visualization observer readout
Local Sidereal Time
08:33:25
Azimuth
Unknown
Elevation
Unknown
Doppler factor
Unknown
Orbital elements
Apogee altitude
476.657 km
Perigee altitude
474.213 km
Semi-major axis
6,853.572 km
Eccentricity
0.00018
Inclination
53.1584°
RAAN
113.9791°
Arg. of periapsis
86.746°
True anomaly
273.3541°
Mean anomaly
273.3745°
Eccentric anomaly
273.3643°
Mean motion
3.82532 °/min
Orbital period
94.11 mins
BSTAR
0.00048957
Loading maneuver chart data...
Computing Atmospheric mass density...
Loading historical data...
Loading historical data...
Loading historical data...
Loading historical data...
Loading historical data...
Loading historical data...
Loading historical data...

Documentation

Showing up to 5 results
|